• In Hungary
  • List of Countries
  • For 7 days
  • Water Temperature
  • Satellite Maps
  • Weather Map
  • News
  • Weather Widgets
  • user-avatar
    Login

    Hourly Weather Golden Sands

    Today, 15 December, Friday

    Time Temperature Precipitation Wind Pressure Humidity
    00:00 +9°C° 0 mm 2 mps 758 mmHg 82%
    01:00 +9°C° 0 mm 2 mps 758 mmHg 84%
    02:00 +9°C° 0 mm 2 mps 758 mmHg 85%
    03:00 +9°C° 0 mm 2 mps 758 mmHg 85%
    04:00 +9°C° 0 mm 2 mps 758 mmHg 86%
    05:00 +9°C° 0 mm 2 mps 758 mmHg 86%
    06:00 +9°C° 0 mm 2 mps 758 mmHg 85%
    07:00 +9°C° 0 mm 2 mps 759 mmHg 85%
    08:00 +9°C° 0 mm 3 mps 759 mmHg 84%
    09:00 +10°C° 0 mm 3 mps 759 mmHg 78%
    10:00 +11°C° 0 mm 4 mps 759 mmHg 71%
    11:00 +13°C° 0 mm 4 mps 759 mmHg 65%
    12:00 +13°C° 0 mm 4 mps 759 mmHg 63%
    13:00 +14°C° 0 mm 5 mps 759 mmHg 61%
    14:00 +14°C° 0 mm 5 mps 758 mmHg 60%
    15:00 +13°C° 0 mm 5 mps 758 mmHg 65%
    16:00 +12°C° 0 mm 5 mps 758 mmHg 71%
    17:00 +10°C° 0 mm 5 mps 758 mmHg 77%
    18:00 +11°C° 0 mm 6 mps 758 mmHg 79%
    19:00 +11°C° 0 mm 6 mps 758 mmHg 81%
    20:00 +11°C° 0 mm 7 mps 757 mmHg 84%
    21:00 +11°C° 0 mm 8 mps 757 mmHg 85%
    22:00 +11°C° 0 mm 8 mps 757 mmHg 86%
    23:00 +11°C° 0 mm 8 mps 756 mmHg 87%

    Tomorrow, 16 December, Saturday

    Time Temperature Precipitation Wind Pressure Humidity
    00:00 +11°C° 0 mm 9 mps 756 mmHg 86%
    01:00 +11°C° 0 mm 9 mps 756 mmHg 86%
    02:00 +11°C° 0 mm 10 mps 756 mmHg 86%
    03:00 +11°C° 0 mm 10 mps 755 mmHg 86%
    04:00 +11°C° 0 mm 10 mps 755 mmHg 86%
    05:00 +11°C° 0 mm 10 mps 755 mmHg 86%
    06:00 +11°C° 0 mm 10 mps 755 mmHg 85%
    07:00 +11°C° 0 mm 11 mps 755 mmHg 85%
    08:00 +11°C° 0 mm 11 mps 755 mmHg 84%
    09:00 +12°C° 0 mm 11 mps 755 mmHg 78%
    10:00 +13°C° 0 mm 11 mps 755 mmHg 72%
    11:00 +14°C° 0 mm 11 mps 754 mmHg 66%
    12:00 +16°C° 0 mm 11 mps 754 mmHg 64%
    13:00 +16°C° 0 mm 10 mps 754 mmHg 62%
    14:00 +16°C° 0 mm 10 mps 754 mmHg 60%
    15:00 +16°C° 0 mm 9 mps 754 mmHg 63%
    16:00 +15°C° 0 mm 9 mps 754 mmHg 66%
    17:00 +13°C° 0 mm 8 mps 754 mmHg 69%
    18:00 +13°C° 0 mm 8 mps 754 mmHg 71%
    19:00 +13°C° 0 mm 8 mps 754 mmHg 74%
    20:00 +13°C° 0 mm 8 mps 754 mmHg 76%
    21:00 +12°C° 0.2 mm 8 mps 754 mmHg 79%
    22:00 +12°C° 0.2 mm 8 mps 754 mmHg 81%
    23:00 +12°C° 0.2 mm 8 mps 755 mmHg 84%

    Day after tomorrow, 17 December, Sunday

    Time Temperature Precipitation Wind Pressure Humidity
    00:00 +12°C° 0.7 mm 8 mps 754 mmHg 84%
    01:00 +12°C° 0.7 mm 8 mps 754 mmHg 84%
    02:00 +12°C° 0.7 mm 8 mps 753 mmHg 85%
    03:00 +12°C° 1.4 mm 9 mps 753 mmHg 88%
    04:00 +11°C° 1.4 mm 9 mps 753 mmHg 90%
    05:00 +11°C° 1.4 mm 10 mps 752 mmHg 93%
    06:00 +9°C° 0.6 mm 10 mps 753 mmHg 91%
    07:00 +8°C° 0.6 mm 10 mps 753 mmHg 88%
    08:00 +7°C° 0.6 mm 9 mps 754 mmHg 86%
    09:00 +7°C° 0.1 mm 9 mps 755 mmHg 83%
    10:00 +7°C° 0.1 mm 8 mps 755 mmHg 80%
    11:00 +7°C° 0.1 mm 8 mps 756 mmHg 77%
    12:00 +8°C° 0.2 mm 7 mps 757 mmHg 75%
    13:00 +8°C° 0.2 mm 7 mps 757 mmHg 74%
    14:00 +8°C° 0.2 mm 7 mps 758 mmHg 72%
    15:00 +6°C° 0 mm 7 mps 758 mmHg 72%
    16:00 +7°C° 0 mm 6 mps 759 mmHg 72%
    17:00 +5°C° 0 mm 6 mps 760 mmHg 72%
    18:00 +5°C° 0.1 mm 6 mps 760 mmHg 72%
    19:00 +5°C° 0.1 mm 6 mps 761 mmHg 71%
    20:00 +5°C° 0.1 mm 6 mps 762 mmHg 71%
    21:00 +5°C° 0 mm 5 mps 762 mmHg 71%
    22:00 +5°C° 0 mm 5 mps 763 mmHg 72%
    23:00 +5°C° 0 mm 5 mps 764 mmHg 72%

    18 December, Monday

    Time Temperature Precipitation Wind Pressure Humidity
    00:00 +5°C° 0 mm 5 mps 764 mmHg 72%
    01:00 +3°C° 0 mm 5 mps 765 mmHg 72%
    02:00 +4°C° 0 mm 4 mps 765 mmHg 72%
    03:00 +4°C° 0 mm 4 mps 765 mmHg 72%
    04:00 +4°C° 0 mm 4 mps 765 mmHg 72%
    05:00 +3°C° 0 mm 4 mps 765 mmHg 72%
    06:00 +3°C° 0 mm 4 mps 766 mmHg 72%
    07:00 +3°C° 0 mm 4 mps 766 mmHg 72%
    08:00 +3°C° 0 mm 4 mps 766 mmHg 73%
    09:00 +3°C° 0 mm 4 mps 767 mmHg 71%
    10:00 +4°C° 0 mm 4 mps 767 mmHg 69%
    11:00 +4°C° 0 mm 4 mps 767 mmHg 67%
    12:00 +4°C° 0 mm 4 mps 766 mmHg 66%
    13:00 +4°C° 0 mm 4 mps 766 mmHg 65%
    14:00 +5°C° 0 mm 4 mps 766 mmHg 65%
    15:00 +4°C° 0 mm 4 mps 766 mmHg 66%
    16:00 +4°C° 0 mm 4 mps 766 mmHg 67%
    17:00 +4°C° 0 mm 4 mps 766 mmHg 68%
    18:00 +4°C° 0.1 mm 4 mps 766 mmHg 68%
    19:00 +4°C° 0.1 mm 4 mps 766 mmHg 68%
    20:00 +3°C° 0.1 mm 4 mps 767 mmHg 69%
    21:00 +3°C° 0 mm 4 mps 767 mmHg 69%
    22:00 +3°C° 0 mm 4 mps 767 mmHg 70%
    23:00 +3°C° 0 mm 4 mps 767 mmHg 70%

    19 December, Tuesday

    Time Temperature Precipitation Wind Pressure Humidity
    00:00 +1°C° 0 mm 4 mps 768 mmHg 71%
    01:00 +1°C° 0 mm 4 mps 768 mmHg 71%
    02:00 +1°C° 0 mm 5 mps 768 mmHg 72%
    03:00 0°C° 0 mm 5 mps 768 mmHg 74%
    04:00 0°C° 0 mm 4 mps 768 mmHg 76%
    05:00 -1°C° 0 mm 4 mps 769 mmHg 78%
    06:00 -1°C° 0 mm 4 mps 769 mmHg 78%
    07:00 -1°C° 0 mm 4 mps 770 mmHg 79%
    08:00 -1°C° 0 mm 4 mps 770 mmHg 79%
    09:00 +1°C° 0 mm 3 mps 771 mmHg 74%
    10:00 +2°C° 0 mm 3 mps 771 mmHg 70%
    11:00 +3°C° 0 mm 3 mps 771 mmHg 65%
    12:00 +4°C° 0 mm 2 mps 771 mmHg 63%
    13:00 +5°C° 0 mm 2 mps 771 mmHg 61%
    14:00 +5°C° 0 mm 2 mps 771 mmHg 59%
    15:00 +6°C° 0 mm 1 mps 771 mmHg 62%
    16:00 +5°C° 0 mm 1 mps 771 mmHg 65%
    17:00 +4°C° 0 mm 1 mps 771 mmHg 68%
    18:00 +4°C° 0 mm 1 mps 771 mmHg 70%
    19:00 +4°C° 0 mm 1 mps 771 mmHg 71%
    20:00 +4°C° 0 mm 1 mps 771 mmHg 72%
    21:00 +4°C° 0 mm 1 mps 771 mmHg 73%
    22:00 +3°C° 0 mm 1 mps 771 mmHg 74%
    23:00 +2°C° 0 mm 2 mps 771 mmHg 75%

    20 December, Wednesday

    Time Temperature Precipitation Wind Pressure Humidity
    00:00 +2°C° 0 mm 2 mps 770 mmHg 76%
    01:00 +2°C° 0 mm 2 mps 770 mmHg 77%
    02:00 +1°C° 0 mm 3 mps 770 mmHg 78%
    03:00 +1°C° 0 mm 3 mps 770 mmHg 79%
    04:00 +1°C° 0 mm 3 mps 770 mmHg 80%
    05:00 0°C° 0 mm 4 mps 770 mmHg 80%
    06:00 0°C° 0.1 mm 4 mps 770 mmHg 81%
    07:00 0°C° 0.1 mm 5 mps 770 mmHg 81%
    08:00 0°C° 0.1 mm 5 mps 770 mmHg 82%
    09:00 +1°C° 0.3 mm 5 mps 770 mmHg 79%
    10:00 +2°C° 0.3 mm 6 mps 770 mmHg 77%
    11:00 +3°C° 0.3 mm 6 mps 770 mmHg 74%
    12:00 +3°C° 0.2 mm 6 mps 770 mmHg 74%
    13:00 +3°C° 0.2 mm 7 mps 770 mmHg 73%
    14:00 +4°C° 0.2 mm 7 mps 770 mmHg 72%
    15:00 +3°C° 0.1 mm 7 mps 770 mmHg 74%
    16:00 +2°C° 0.1 mm 8 mps 770 mmHg 75%
    17:00 +2°C° 0.1 mm 8 mps 771 mmHg 76%
    18:00 +1°C° 0.1 mm 8 mps 771 mmHg 75%
    19:00 +1°C° 0.1 mm 8 mps 771 mmHg 75%
    20:00 0°C° 0.1 mm 8 mps 772 mmHg 74%
    21:00 0°C° 0 mm 8 mps 772 mmHg 78%
    22:00 0°C° 0 mm 8 mps 772 mmHg 81%
    23:00 -1°C° 0 mm 8 mps 772 mmHg 85%
    Show more